Regional Weather Roundup
Issued by NWS Wakefield, VA

Home | Current Version | Previous Version | Graphics & Text | Print | Product List | Glossary On
Versions: 1 2 3 4 5 6 7 8 9 10 11 12 13 14 15 16 17 18 19 20 21 22 23 24 25 26 27
000
ASUS41 KAKQ 280315
RWRAKQ

REGIONAL WEATHER ROUNDUP
NATIONAL WEATHER SERVICE WAKEFIELD VA
1100 PM EDT SAT AUG 27 2016

Note: "fair" indicates few or no clouds below 12,000 feet with no
significant weather and/or obstructions to visibility. * = Denotes
station may not report precipitation (e.g., rain,snow,etc.),
thunder or fog.

VAZ042-051-052>054-056-280400-
NORTHERN VIRGINIA

CITY           SKY/WX    TMP DP  RH WIND       PRES   REMARKS
WASH NATIONAL  CLEAR     81  68  64 E3        30.20R
DULLES         CLEAR     76  64  66 SE5       30.20S
FORT BELVOIR   CLEAR     70  68  91 CALM      30.20R
QUANTICO       CLEAR     77  71  82 NW6       30.20R
FREDERICKSBRG* CLEAR     73  68  87 CALM      30.19R
STAFFORD*      CLEAR     69  67  95 CALM      30.24R
WARRENTON      CLEAR     68  62  82 CALM      30.20S
CULPEPER*      CLEAR     71  70  98 CALM      30.21S
MANASSAS*      CLEAR     73  70  88 CALM      30.20R
LEESBURG*      CLEAR     77  70  78 CALM      30.22S
WINCHESTER     CLEAR     72  66  83 CALM      30.22R
FRONT ROYAL*   FAIR      72  68  88 CALM      30.21R
LURAY*         FAIR      72  72 100 CALM      30.23R
$$

VAZ048-049-060>072-079>083-280400-
CENTRAL AND SOUTH CENTRAL VIRGINIA

CITY           SKY/WX    TMP DP  RH WIND       PRES   REMARKS
RICHMOND       CLEAR     74  65  73 NE6       30.18R
CHESTERFIELD*  FAIR      73  55  53 CALM      30.20R
PETERSBURG*    CLEAR     70  70 100 CALM      30.19R
HANOVER        CLEAR     69  64  84 CALM      30.20S
TAPPAHANNOCK*  CLEAR     69  69 100 CALM      30.19S
QUINTON*       FAIR      71  69  91 CALM      30.18R
CHARLOTTSVILLE CLEAR     75  70  84 NW3       30.22R
GORDONSVILLE*  NOT AVBL
ORANGE*          N/A     70  70 100 CALM      30.23R
LOUISA*        CLEAR     70  66  88 CALM      30.20R
BUMPASS*       FAIR      70  67  90 CALM      30.20R
FARMVILLE*     CLEAR     76  67  73 N3        30.18S
CREWE*         FAIR      70  70 100 CALM      30.19S
FORT PICKETT*  NOT AVBL
CHASE CITY*    FAIR      78  65  66 E3        30.18F
CLARKSVILLE*   FAIR      81  70  69 E6        30.17S
SOUTH HILL*    CLEAR     73  69  85 CALM      30.23F
LAWRENCEVILLE* FAIR      76  66  70 CALM      30.18S
EMPORIA*       CLEAR     73  63  68 CALM      30.19R
$$

VAZ088>098-280400-
SOUTHEAST VIRGINIA

CITY           SKY/WX    TMP DP  RH WIND       PRES   REMARKS
NORFOLK        MOCLDY    77  75  93 NE7       30.17R
VIRGINIA BEACH MOCLDY    83  74  74 VRB5      30.15S
NORFOLK NAVAL  MOCLDY    78  74  87 E9        30.18S
WEST POINT*    CLEAR     71  68  90 CALM      30.20R
SALUDA*        FAIR      79  74  84 E6        30.18R
NEWPORT NEWS   CLEAR     76  70  82 E7        30.18R
LANGLEY AFB    CLEAR     77  72  84 NE10      30.17R
FORT EUSTIS    CLEAR     78  70  76 VRB2      30.16R
WILLIAMSBURG*  CLEAR     75  70  83 CALM      30.19R
HR EXEC AP*    FAIR      75  70  83 E6        30.19S
FRANKLIN*      CLEAR     70  67  89 CALM      30.18R
US460-WAKEFLD  CLEAR     70  66  87 CALM      30.18R
$$

VAZ020-022-025-037-045-280400-
WEST CENTRAL AND SOUTHWEST VIRGINIA

CITY           SKY/WX    TMP DP  RH WIND       PRES   REMARKS
STAUNTON*      CLEAR     72  68  89 CALM      30.25F
WAYNESBORO*    FAIR      75  66  73 SE6       30.25S
HOT SPRINGS VA CLOUDY    71  71 100 E6        30.37R
LYNCHBURG      CLEAR     78  66  66 NE7       30.22S
DANVILLE       PTCLDY    77  72  84 NE6       30.17S
SOUTH BOSTON*  FAIR      74  71  89 NE5       30.17S
MARTINSVILLE   PTCLDY    73  72  97 CALM      30.22R
ROANOKE        CLOUDY    83  69  62 CALM      30.24R
BLACKSBURG     MOCLDY    76  72  85 E7        30.30S
DUBLIN*        CLOUDY    71  69  93 CALM      30.29R
MARION*        CLOUDY    74  69  82 CALM      30.32R
HILLSVILLE*    CLOUDY    72  71  98 CALM      30.30R
RICHLANDS*     FAIR      76  71  83 SE6       30.28S
WISE*          CLOUDY    72  59  64 E5        30.29F
ABINGDON*      CLOUDY    78  72  82 CALM      30.25S
$$

MDZ021>025-VAZ099-100-280400-
SOUTHERN MARYLAND AND THE DELMARVA PENINSULA

CITY           SKY/WX    TMP DP  RH WIND       PRES   REMARKS
PATUXENT RIVER CLEAR     77  69  76 E10       30.19R
BAY BRIDGE APT CLEAR     77  70  78 SE7       30.21R
LEONARDTOWN    CLEAR     73  68  83 E3        30.21R
DOVER          CLEAR     73  73 100 E7        30.20R
GEORGETOWN     NOT AVBL
EASTON         CLEAR     74  73  95 SE3       30.24S
CAMBRIDGE      CLEAR     72  68  88 CALM      30.20R
SALISBURY      CLEAR     73  71  93 NE5       30.19S
OCEAN CITY     CLEAR     77  73  87 NE7       30.19R
WALLOPS ISLAND MOCLDY    79  68  69 NE13      30.19R
ACCOMACK*      CLEAR     74  71  90 NE6       30.17F
$$

NCZ012>017-030>032-280400-
NORTH CENTRAL AND EASTERN NORTH CAROLINA

CITY           SKY/WX    TMP DP  RH WIND       PRES   REMARKS
ROANOKE RAPIDS FAIR      73  68  83 CALM      30.16S
RALEIGH        MOCLDY    80  70  71 E6        30.15R
ELIZABETH CITY CLEAR     78  75  90 NE9       30.15S
AHOSKIE*       CLEAR     75  70  83 CALM      30.16S
EDENTON*       CLEAR    N/A N/A N/A NE3       30.15F
CURRITUCK*       N/A     80  76  89 NE8       30.16S
KILL DEVIL HLS CLEAR     79  78  98 NE5       30.13R
MANTEO         CLEAR     78  76  94 NE9G16    30.14R
CAPE HATTERAS  PTCLDY    81  77  88 NE5       30.12R
TARBORO*       FAIR      75  72  91 NE3       30.16S
GOLDSBORO      NOT AVBL
WASHINGTON     CLEAR     76  74  91 NE3       30.14S
GREENVILLE     CLEAR     79  75  89 E3        30.16R
NEW BERN       MOCLDY    79  76  90 CALM      30.14S
WILMINGTON     PTCLDY    78  75  90 NE3       30.12S
$$

VAZ048-280400-
ELSEWHERE

CITY           SKY/WX    TMP DP  RH WIND       PRES   REMARKS
HARRISBURG PA  PTCLDY    77  69  76 E3        30.19S
BALTIMORE      PTCLDY    74  67  78 E3        30.20R
ANNAPOLIS      CLEAR     81  71  71 SE10      30.20R
ANDREWS AFB    CLEAR     73  67  81 E5        30.20R
PHILADELPHIA   PTCLDY    75  64  68 E5        30.23R
HENDERSON NC   PTCLDY    73  67  81 E5        30.18S
GREENSBORO     CLOUDY    75  74  96 CALM      30.17S
ROCKY MOUNT    CLEAR     78  72  81 NE5       30.15R
$$

VAZ100-280400-
MARINE

STATION/POSITION TIME  TEMP    WIND        PRES    WAVE   SWELL
                       AIR SEA DIR/SP/G            HT/PER HT/PER
                 (UTC) (F)     (DEG/KT/KT) (MB)    (FT/S) (FT/S)
BRANDYWINE LGT   0200   76      90/ 12/ 13   N/A
CAPE MAY NJ      0200   75 74   60/  5/  8 1022.2R
LEWES DE         0200   75 77   70/  9/ 10 1022.4R
OCEAN-CITY-INLET 0200   77 74   70/  6/  8 1022.5R
WACHAPREAGUE VA  0200   77 84   30/ 10/ 13 1021.7R
THOMAS POINT MD  0300   78 83  110/ 12/ 13 1024.0R
GOOSES REEF MD   0300   80 83  100/ 12/ 14 1023.0R   1/ 3
COVE POINT MD    0200   80     130/ 10/ 12 1022.7R
SOLOMONS ISLAND  0200   81 85   80/ 12/ 14   N/A
PINEY POINT MD   0200          100/  6/  9   N/A
POTOMAC MD       0300   81 83   80/ 14/ 16 1021.3R   2/ 3
CAMBRIDGE MD     0200   78 85   90/ 10/ 12 1021.6R
LEWISETTA VA     0200   82 85   90/ 14/ 16 1021.4R
RAPPAHANNOCK LGT 0200           50/ 13/ 15 1022.2R
STINGRAY PT      0300   81 84   30/ 12/ 16 1022.3R   2/ 3
YORK RVR RNG VA  0200   80      70/ 14/ 16 1021.2R
YORKTOWN VA      0200   81 84   80/ 13/ 14 1021.3R
JAMESTOWN VA     0300   80 86   60/  2/  4   N/A
DOMINION TERM VA 0200   80      70/  8/ 11 1021.6R
KIPTOPEKE VA     0200      81   60/  5/  8   N/A
CHES BAY BRIDGE  0200   78 77   40/ 12/ 13 1021.2R
CAPE HENRY VA    0200   78      50/ 13/ 15   N/A
WILLOUBY STN VA  0200   79      40/ 10/ 12   N/A
CAPE HENRY BUOY  0212      80                N/A     3/ 4
1ST LANDING BUOY 0300   78 79   80/ 10/ 12 1021.2R   2/ 3
CAPE CHARLES BUO 0226      79                N/A     3/ 9
OFFSHORE WE BUOY 0221      80                N/A     3/ 9
64NM E OF VA BCH 0250   80 81   40/ 14/ 17 1020.1R   3/ 9   2/ 9
DUCK PIER NC     0200   80 80   40/ 16/ 18 1019.8R
44100 DUCK FRF   0205      80                N/A     4/ 4
44056 DUCK FRF   0211      79                N/A     3/ 9
OREGON INLET NC  0200   80 80   30/ 10/ 14 1019.7R
HATTERAS NC      0200   82 85   40/  6/  9 1019.2R
DIAMOND SHLS NC  0250   80 84  360/  8/  8 1019.9R   3/ 9   3/ 9
CAPE LOOKOUT NC  0300   81      30/  5/  6 1019.5S
$$




USA.gov is the U.S. government's official web portal to all federal, state and local government web resources and services.